星链-1583 (STARLINK-1583 )

导读 | 豆包AI

STARLINK-1583是美国太空探索技术公司星链卫星互联网项目的组成卫星,于2020年8月7日发射升空,属于星链计划低轨互联网星座组网卫星。它运行在近地轨道,承担着为全球提供高速宽带互联网接入服务的任务,推进了星链星座全球覆盖的组网进程。

基本信息
目录编号:
46064
目录名称:
STARLINK-1583
国际标识:
2020-055AP
轨道中心:
EARTH
卫星名称:
星链-1583
卫星全名:
星链-1583 (STARLINK-1583 )
卫星状态:
在轨 (已飞行2045 天)
发射日期:
2020-08-07 UTC
国别 :
美国 (US)
星等 :
--
轨道信息
数据来源 国际轨道数据
星历时间: 2026-03-13T19:33:35+0800
18小时前
查看轨道信息
半长轴: 6853.268km
偏心率: 0.0001421
轨道倾角: 53.161°
近地点辐角 102.596°
升交点赤经 96.252°
平近点角 257.520°
近地点: 474.157km
远地点: 476.105km
周期: 94.104分钟
每日圈数: 15.302282
详细信息
固有亮度:
5
最大亮度:
2.5
卫星平台:
Starlink V1.0
覆盖范围:
全球
运营商:
太空探索技术公司
运营商所在国:
美国
制造商(研发单位):
太空探索技术公司
制造商所在国:
美国
使用方式:
暂无
卫星简介
星链(Starlink)计划是由太空探索技术公司(SpaceX)提出的一个巨型低轨卫星互联网星座项目,计划在2019年至2024年间在太空搭建由约1.2万颗卫星组成的“星链”网络,其中1584颗将部署在地球上空550千米处的近地轨道,并从2020年开始工作。该卫星仍在工作。
2D轨道图
3D轨道图
轨道高度分析图
轨道倾角分析图
轨道综合分析图
查看轨道综合分析图